Probability
37 35 33 30 25 24 29 31 25 19 18 15 9 5 5 5 4 4 6 7 4 1 1 3 5 6 8 9 9 9 6 4 4 4 4 4 4 2 1 0 0 0 0
39 37 33 28 23 21 26 29 25 21 20 17 12 8 7 7 6 5 6 7 5 2 2 4 7 8 9 9 9 9 9 7 6 5 5 4 4 4 2 2 1 0 0
38 37 33 28 24 23 26 28 26 23 21 19 16 12 10 11 10 7 6 8 8 5 4 6 8 9 8 8 7 9 11 11 8 6 6 6 6 6 6 6 4 2 1
35 35 33 32 32 31 31 29 27 25 23 20 18 15 14 15 12 9 7 8 8 7 7 8 9 8 7 7 7 9 12 14 12 8 8 9 9 9 10 10 7 3 2
32 32 34 38 40 39 38 35 31 28 25 20 17 17 17 17 16 12 9 7 7 6 6 7 9 9 7 8 9 11 13 15 14 12 10 12 14 14 13 11 8 4 2
31 32 34 37 40 41 42 39 34 30 26 21 16 15 17 16 15 15 11 7 6 5 4 5 8 9 7 7 8 11 13 15 17 16 14 16 18 18 16 12 8 4 2
28 30 31 33 34 37 39 37 31 27 26 23 19 15 12 11 11 12 9 6 4 4 4 4 7 8 6 4 4 8 12 15 18 19 18 19 22 23 20 15 10 5 2
23 24 27 30 31 31 32 32 28 24 23 23 21 16 9 6 7 6 5 4 2 2 3 4 6 8 7 5 3 6 11 14 16 19 20 21 24 25 22 16 12 8 4
21 21 24 27 30 29 29 30 28 25 22 21 19 15 9 6 5 4 2 3 2 2 3 5 6 7 8 8 6 5 7 9 11 15 19 22 24 24 20 15 12 9 6
19 20 21 23 26 28 29 29 26 24 22 19 16 12 8 6 6 5 3 3 3 3 4 5 6 6 7 8 8 6 5 4 6 10 15 20 23 21 17 12 9 7 6
19 19 19 20 22 25 26 25 22 21 19 16 12 9 7 6 6 5 4 4 4 4 4 5 6 6 6 6 7 6 4 2 3 5 8 14 17 16 14 10 6 5 6
18 18 18 18 20 21 21 20 19 18 16 14 10 8 7 6 5 5 4 4 4 4 4 5 5 6 6 7 6 4 2 1 1 3 4 6 8 9 10 8 5 4 4
15 16 16 16 18 18 17 16 16 15 14 13 10 8 7 6 6 5 3 2 3 4 5 5 5 6 7 7 5 2 0 0 1 2 2 3 4 5 6 6 3 2 2
11 11 11 12 14 15 14 13 13 13 12 12 10 8 7 6 6 5 3 1 1 3 5 6 6 6 7 6 5 3 1 0 0 1 1 1 2 3 3 2 1 0 0
6 7 7 9 10 11 11 10 10 12 13 12 10 8 7 7 7 6 5 2 1 1 4 7 6 6 5 4 3 4 3 1 0 0 0 0 1 1 1 0 0 0 0
4 5 6 7 8 8 9 9 10 12 13 12 10 8 7 7 8 8 7 4 2 0 3 6 5 4 4 3 3 3 3 1 0 0 0 0 0 0 0 0 0 0 0
3 4 6 7 7 7 8 9 10 11 10 9 7 6 6 6 7 8 7 5 3 1 2 4 4 3 3 3 3 3 3 2 1 0 0 0 0 0 0 0 0 0 0
4 4 5 6 6 6 7 9 9 7 6 5 4 4 4 4 5 5 5 4 2 1 1 1 2 3 3 3 3 3 2 2 1 0 0 0 0 0 0 0 0 0 0
5 4 4 5 6 6 6 7 6 5 4 3 3 3 3 3 3 3 3 1 1 1 0 0 1 1 2 3 3 3 2 1 1 0 0 0 0 0 0 0 0 0 0
6 4 4 4 4 4 4 4 4 3 3 3 3 3 3 2 2 2 1 0 0 0 0 0 0 1 1 2 2 2 1 1 0 0 0 0 0 0 0 0 0 0 0
6 5 4 3 3 3 3 3 3 3 3 3 3 2 1 1 1 1 0 0 0 0 0 0 0 0 0 0 1 2 2 1 0 0 0 0 0 0 0 0 0 0 0
6 6 5 4 3 3 3 3 3 3 3 3 3 1 0 0 0 0 0 0 0 0 0 0 0 0 0 0 0 1 2 1 0 0 0 0 0 0 0 1 0 0 0
6 6 6 5 4 3 2 1 2 3 4 3 3 1 0 0 0 0 0 0 0 0 0 0 0 0 0 0 0 1 1 0 0 1 0 0 0 0 0 0 0 0 0
6 6 6 6 6 4 1 0 1 3 4 4 3 2 1 0 0 0 0 0 0 0 0 0 0 0 0 0 0 0 0 0 0 0 0 0 0 0 0 0 0 0 0
6 6 6 6 6 5 2 0 1 2 3 3 3 2 1 0 0 0 0 0 0 0 0 0 0 0 0 0 0 0 0 0 0 0 0 0 0 0 0 0 0 0 0
6 5 4 4 5 4 2 0 0 1 3 3 3 2 1 0 0 0 0 0 0 0 0 0 0 0 0 0 0 0 0 0 0 0 0 0 0 0 0 0 0 0 0
Wind_Speed
5 5 4 4 5 4 5 5 5 5 6 7 7 8 8 8 8 7 4 6 7 8 9 10 11 11 11 12 12 12 12 13 14 13 13 12 12 12 12 12 12 12 12
5 5 5 5 5 5 5 5 6 5 6 6 7 7 8 8 7 8 8 6 9 9 9 9 10 10 11 12 12 12 12 13 13 13 13 13 12 12 12 12 12 13 13
5 5 5 5 5 5 5 5 6 6 6 6 7 8 7 8 7 7 8 7 6 9 10 9 9 9 10 12 13 14 14 14 14 13 13 13 13 13 12 12 12 12 13
6 5 5 5 5 5 5 5 5 5 5 6 6 6 6 6 8 8 8 7 6 5 7 9 9 9 10 12 13 14 14 14 14 14 14 14 14 14 13 13 13 13 12
6 6 5 4 5 5 5 5 4 5 5 5 6 6 6 6 6 7 8 8 6 6 6 6 10 10 10 11 12 13 13 14 14 14 14 14 14 14 14 14 13 13 13
5 5 5 5 6 4 4 4 5 5 5 5 6 5 5 5 5 6 7 6 5 7 6 6 6 8 11 11 10 11 12 13 13 14 15 15 14 14 14 14 14 14 14
4 5 4 4 5 4 4 5 5 6 5 4 5 5 5 6 6 5 5 5 5 5 5 6 6 5 5 11 11 10 10 11 12 13 14 14 13 14 14 15 15 14 14
5 5 5 4 4 4 4 4 4 4 4 3 4 4 5 5 5 5 5 5 5 4 5 6 5 5 6 5 6 10 9 10 11 12 12 13 13 14 14 14 14 14 14
4 4 5 4 4 4 3 4 4 4 4 3 3 3 4 4 3 4 5 5 4 4 5 4 6 6 7 5 5 8 9 8 9 10 11 11 13 14 14 14 14 14 14
4 5 5 5 4 4 3 4 2 3 3 3 3 3 5 4 4 3 4 4 4 5 5 5 6 6 6 5 4 4 5 6 8 9 10 10 11 13 14 14 14 14 14
3 4 4 5 5 4 3 3 2 3 3 3 3 3 4 4 6 5 5 4 4 4 4 5 5 4 5 5 5 3 4 5 6 7 8 9 9 11 12 13 14 14 15
2 2 2 3 3 2 2 3 2 3 3 3 3 4 4 4 4 5 6 5 5 4 4 4 5 4 4 4 4 2 4 5 5 6 7 7 7 7 9 11 11 12 13
1 1 1 1 2 1 2 2 3 2 3 4 4 4 4 4 4 5 5 5 6 4 4 5 4 4 4 3 3 3 5 5 5 6 5 5 5 6 7 8 9 10 10
1 1 1 2 1 1 2 2 2 2 2 3 4 5 4 4 4 5 5 5 5 5 5 5 3 4 3 3 1 5 4 5 5 6 6 5 5 5 6 7 7 7 7
1 2 3 2 2 1 1 2 2 2 3 4 4 5 4 3 4 4 4 5 5 6 5 4 3 3 3 3 2 4 4 4 5 6 6 6 6 6 6 6 6 6 6
1 3 3 2 2 2 2 2 2 2 3 4 4 4 4 4 4 4 4 5 5 6 6 3 3 2 2 3 2 4 3 5 6 6 6 6 6 6 6 6 6 6 7
2 2 3 2 2 2 2 2 3 3 3 3 3 4 4 5 5 4 4 4 5 6 7 5 3 2 3 4 2 3 3 3 3 6 6 6 6 6 6 6 6 6 7
2 3 2 2 2 2 2 2 2 2 3 3 3 4 4 4 5 4 3 4 4 5 6 6 4 3 3 3 3 3 2 2 2 4 6 6 6 6 6 6 6 6 7
2 1 1 1 1 1 1 1 2 2 3 3 3 3 4 4 4 3 4 4 4 4 4 4 4 3 3 3 3 3 3 2 3 4 7 8 8 7 7 7 7 7 7
1 1 0 0 0 0 0 1 1 2 2 2 3 3 3 3 3 4 3 4 4 4 4 4 3 3 3 3 3 3 3 3 3 3 3 4 6 9 9 8 8 8 8
1 1 1 0 1 1 1 2 2 2 2 2 2 2 2 2 3 3 4 4 4 3 3 3 3 3 3 2 3 3 3 3 3 3 3 4 5 6 8 10 10 9 9
1 1 1 1 1 1 3 2 4 4 3 2 2 2 2 1 1 2 3 4 5 4 4 3 3 3 3 3 3 3 3 3 3 2 3 3 4 5 5 5 8 10 10
1 1 1 1 1 1 1 1 3 4 3 3 2 3 3 2 1 2 2 4 3 3 4 5 4 4 4 3 3 4 3 4 4 3 3 4 4 4 5 4 9 10 10
1 1 1 1 2 1 1 1 3 4 3 3 3 3 3 3 2 3 3 3 2 2 3 4 3 4 4 3 4 4 4 5 5 4 4 5 4 4 4 3 9 11 11
2 2 1 2 2 1 1 1 3 2 2 3 3 3 3 3 1 3 4 4 3 2 2 2 3 4 5 5 5 5 5 5 5 4 4 4 4 4 4 4 7 12 12
2 2 2 2 2 2 0 1 3 3 2 3 2 2 1 2 1 3 4 4 4 4 3 3 4 6 7 7 8 7 6 5 5 4 3 4 4 4 4 4 4 6 8
Wind_Direction
222 223 229 237 243 241 228 238 242 241 246 248 251 253 255 257 261 260 240 193 223 240 244 242 235 230 228 225 221 221 219 221 221 219 218 221 224 224 223 222 218 216 216
224 226 228 229 238 246 248 245 245 246 248 251 253 256 260 260 259 260 262 225 210 225 236 240 241 236 233 227 222 219 219 222 223 221 219 219 222 223 223 223 222 220 217
223 228 234 232 234 239 240 245 248 248 244 245 249 252 252 253 257 258 261 264 240 213 217 227 236 235 235 231 226 222 221 220 222 223 221 220 222 224 224 225 225 224 222
230 233 237 236 237 241 240 239 245 250 253 254 251 251 251 248 248 251 252 251 257 255 217 209 223 230 238 238 232 227 223 222 221 223 223 223 224 224 223 224 225 225 225
230 235 245 249 242 240 242 248 240 252 256 258 256 248 251 250 252 253 254 252 248 248 251 211 210 221 232 237 236 232 227 224 223 224 225 226 227 226 222 221 223 224 225
231 239 239 245 246 243 244 246 255 250 259 261 266 262 256 255 251 252 252 246 239 241 245 252 233 215 215 226 233 233 230 227 224 226 227 228 228 224 223 222 223 224 223
238 240 246 237 243 239 244 247 251 246 249 258 264 264 250 242 240 243 245 252 245 243 246 247 250 248 222 210 217 225 230 231 229 229 229 229 226 221 220 221 222 223 222
242 237 246 247 241 244 235 239 243 255 257 247 261 272 264 234 216 230 234 234 246 255 252 246 247 243 248 238 201 207 223 233 235 233 231 231 226 220 218 219 222 223 222
239 241 238 244 243 241 233 234 232 241 262 258 247 267 279 276 279 222 226 234 233 249 259 257 246 245 242 240 233 206 213 226 237 238 235 233 225 221 219 220 220 223 222
239 230 232 229 229 233 231 229 221 244 253 261 248 246 269 294 283 276 245 233 233 243 254 258 255 248 245 242 232 221 212 223 236 241 241 238 230 223 220 221 221 221 222
240 238 232 227 222 224 223 233 231 243 250 261 267 262 257 255 253 264 271 264 254 248 246 253 257 255 251 246 246 223 210 223 234 242 242 240 235 225 219 221 223 222 224
231 236 230 215 216 218 218 231 235 234 249 265 269 265 262 265 259 260 266 264 263 259 255 255 248 244 244 245 245 206 220 228 232 236 235 233 227 220 219 221 222 221 223
229 206 221 219 213 212 237 243 233 241 245 257 262 270 269 273 276 272 273 274 272 267 254 246 242 246 249 247 235 209 220 224 228 224 221 221 219 215 215 219 221 223 225
248 205 212 220 236 227 236 253 258 248 252 258 265 272 270 266 270 268 272 277 274 267 254 249 242 242 256 260 243 234 224 201 212 216 217 218 219 217 214 214 217 220 223
228 204 213 212 224 241 252 262 267 263 262 256 259 260 266 263 263 260 261 263 266 271 269 257 247 233 252 260 232 252 239 189 203 211 215 216 220 222 216 210 211 209 212
236 219 213 211 215 224 240 269 274 269 268 268 272 275 277 275 271 258 254 259 257 267 274 273 274 277 277 277 242 263 252 180 201 206 211 215 217 217 215 214 213 213 212
256 231 226 219 222 225 227 235 257 261 265 276 283 284 283 282 277 273 264 264 262 261 266 275 272 270 266 271 264 268 264 241 203 191 200 206 209 214 217 216 215 216 216
266 233 223 218 222 226 227 232 248 259 271 280 287 290 291 285 282 278 273 272 272 270 267 274 280 271 267 267 267 263 264 260 241 179 194 204 208 213 215 215 215 218 220
310 257 200 209 223 226 223 225 241 262 277 286 290 290 291 291 293 297 288 282 277 275 270 269 278 282 272 267 264 255 249 245 243 199 194 201 206 211 213 215 216 217 217
326 317 61 16 324 296 293 289 286 290 304 312 310 307 303 303 309 313 299 292 288 285 275 265 266 270 268 264 261 254 249 232 240 234 220 211 202 206 210 212 215 217 215
342 350 21 353 324 322 15 341 311 306 314 316 314 317 330 338 329 310 307 305 295 280 277 273 268 265 264 266 272 275 267 256 243 244 243 228 214 217 204 207 211 212 212
355 355 336 312 321 12 58 351 295 295 295 296 308 320 309 231 246 256 287 294 298 292 294 287 277 275 276 273 275 271 269 266 261 224 247 249 233 234 231 223 191 194 206
344 355 334 334 358 52 92 287 281 278 282 288 291 293 303 352 289 284 240 233 250 260 270 284 287 285 281 283 280 272 270 273 272 262 255 263 250 249 245 215 176 187 200
333 320 319 348 335 28 121 264 278 261 284 291 282 280 281 286 318 309 288 288 285 270 260 259 278 283 289 295 281 271 274 270 264 248 237 260 254 251 252 229 179 193 203
324 317 342 332 320 344 145 248 279 271 280 291 285 284 280 276 359 307 277 280 290 286 226 231 275 286 296 286 281 273 265 262 264 254 229 249 258 261 255 236 193 193 206
304 310 332 307 285 286 184 228 269 264 277 287 286 263 222 245 291 294 270 278 288 301 305 266 236 235 240 236 231 246 264 267 273 267 236 245 255 253 255 237 215 194 207